Flag for Canada Weather past 2 weeks in Sault Ste. Marie, Ontario, Canada

Now
48 °F

Passing clouds.


Feels Like: 45 °F
Forecast: 45 / 58 °F
Wind: 8 mph from West

Location: Sault Ste Marie

Current Time: Sep 15, 2014 at 6:27:21 AM

Latest Report: Sep 15, 2014 at 5:00 AM


Visibility: 15 mi

Pressure: 30.06 "Hg

Humidity: 87%

Dew point: 45 °F

Location of Sault Ste. MarieLocation

Historic Weather in Sault Ste. Marie — Graph

°F

Sault Ste. Marie temperature yesterday

Maximum temperature yesterday: 57 °F (at 4:00 PM)
Minimum temperature yesterday: 41 °F (at 12:00 AM)
Average temperature yesterday: 49 °F

Past Weeks' High & Low Weather Summary

 TemperatureHumidityPressure
High77 °F (Sep 3, 1:00 PM)100% (Aug 31, 11:00 PM)30.41 "Hg (Aug 31, 11:00 PM)
Low36 °F (Sep 12, 1:50 AM)47% (Sep 12, 4:00 PM)29.41 "Hg (Sep 10, 8:00 PM)
Average58 °F84%29.99 "Hg
* Reported Aug 31 5:00 AM — Sep 15 5:00 AM, Sault Ste. Marie, Weather by CustomWeather, © 2014

Note: Actual official high and low records may vary slightly from our data, if they occured in-between our weather recording intervals... More about our weather records

Advertising

Sault Ste. Marie weather history for previous 24 hours

 ConditionsComfort  
Time TempWeatherWind HumidityBarometerVisibility
5:00 AM
Sep 15
48 °FPassing clouds.8 mph87%30.06 "Hg15 mi
4:00 AM45 °FPassing clouds.5 mph100%30.06 "Hg15 mi
3:00 AM45 °FPassing clouds.2 mph100%30.06 "Hg15 mi
2:00 AM46 °FPassing clouds.5 mph93%30.06 "Hg15 mi
1:00 AM52 °FOvercast.3 mph94%30.06 "Hg15 mi
12:00 AM52 °FPassing clouds.7 mph94%30.05 "Hg15 mi
11:00 PM
Sep 14
52 °FPassing clouds.6 mph88%30.06 "Hg15 mi
10:00 PM54 °FPassing clouds.7 mph77%30.06 "Hg15 mi
9:00 PM54 °FPassing clouds.6 mph77%30.08 "Hg15 mi
8:00 PM54 °FBroken clouds.5 mph72%30.09 "Hg15 mi
7:00 PM55 °FPartly sunny.7 mph63%30.10 "Hg15 mi
6:00 PM55 °FPartly sunny.7 mph63%30.10 "Hg15 mi
5:00 PM55 °FLight rain. Broken clouds.10 mph67%30.10 "Hg15 mi
4:47 PM55 °FLight rain. Broken clouds.10 mph67%30.10 "Hg15 mi
4:00 PM57 °FPartly sunny.13 mph59%30.12 "Hg15 mi
3:00 PM54 °FPartly sunny.5 mph82%30.15 "Hg15 mi
2:00 PM50 °FLight rain. Partly sunny.No wind88%30.18 "Hg15 mi
1:00 PM48 °FLight rain. Mostly cloudy.9 mph87%30.20 "Hg10 mi
12:54 PM50 °FLight rain. Mostly cloudy.10 mph82%30.20 "Hg12 mi
12:00 PM52 °FMostly cloudy.7 mph77%30.21 "Hg15 mi
11:00 AM50 °FMore clouds than sun.7 mph82%30.23 "Hg15 mi
10:00 AM48 °FLight rain. More clouds than sun.3 mph94%30.25 "Hg15 mi
9:00 AM46 °FMostly cloudy.No wind93%30.27 "Hg15 mi
8:00 AM46 °FOvercast.6 mph87%30.27 "Hg15 mi
7:00 AM45 °FMostly cloudy.5 mph87%30.27 "Hg15 mi
6:00 AM45 °FMostly cloudy.5 mph93%30.29 "Hg15 mi
Weather by CustomWeather, © 2014

See weather overviewHow to use our weather pages